GW5755 Weather Reports


Display with metric or nautical units.
time (UTC)temp
F
wind
direction
speed
MPH
gust
MPH
rain 1hr
in
rain 24hr
in
rain mn
in
humidity
%
barometer
mb
20260504130550 84 319 10.0 15.0 0.00 0.00 0.00 35 1010.9
20260504110438 83 305 9.0 11.0 0.00 0.00 0.00 31 1011.9
20260504100401 82 334 13.0 18.0 0.00 0.00 0.00 35 1012.7
20260504081754 80 340 16.0 21.0 0.00 0.00 0.00 41 1013.3
20260504081250 79 347 13.0 17.0 0.00 0.00 0.00 41 1013.3
20260504080747 79 345 15.0 17.0 0.00 0.00 0.00 43 1013.3
20260504080243 79 345 15.0 17.0 0.00 0.00 0.00 43 1013.2
20260504070211 78 346 24.0 27.0 0.00 0.00 0.00 45 1013.5
20260504060131 76 344 25.0 32.0 0.00 0.00 0.00 50 1013.1
20260504050600 74 356 21.0 29.0 0.00 0.00 0.00 56 1012.2
20260504045553 74 356 26.0 34.0 0.00 0.00 0.00 57 1012.4
20260504045043 74 348 23.0 32.0 0.00 0.00 0.00 57 1012.2
20260504044541 73 333 22.0 30.0 0.00 0.00 0.00 58 1012.4
20260504044038 73 346 26.0 30.0 0.00 0.00 0.00 58 1012.3
20260504043534 73 334 19.0 22.0 0.00 0.00 0.00 59 1012.4
20260504043032 73 9 23.0 29.0 0.00 0.00 0.00 60 1012.1
20260504042529 72 355 20.0 32.0 0.00 0.00 0.00 61 1012.2
20260504042026 72 353 27.0 33.0 0.00 0.00 0.00 61 1012.0
20260504041522 72 353 24.0 26.0 0.00 0.00 0.00 62 1012.0
20260504041018 72 346 18.0 29.0 0.00 0.00 0.00 62 1012.0
20260504040516 72 342 24.0 30.0 0.00 0.00 0.00 62 1012.0
20260504040012 72 347 24.0 33.0 0.00 0.00 0.00 63 1012.0
20260504035509 72 317 26.0 35.0 0.00 0.00 0.00 63 1011.8
20260504035005 72 343 17.0 23.0 0.00 0.00 0.00 63 1011.8
20260504034503 71 359 21.0 24.0 0.00 0.00 0.00 64 1011.7
20260504034000 71 338 20.0 27.0 0.00 0.00 0.00 64 1011.9
20260504033457 71 359 19.0 29.0 0.00 0.00 0.00 64 1011.7
20260504032955 72 338 23.0 29.0 0.00 0.00 0.00 63 1011.7
20260504032451 71 356 28.0 31.0 0.00 0.00 0.00 62 1011.5
20260504031948 72 333 21.0 30.0 0.00 0.00 0.00 64 1011.5
20260504031445 71 347 17.0 23.0 0.00 0.00 0.00 65 1011.2
20260504030942 71 354 23.0 25.0 0.00 0.00 0.00 66 1011.2
20260504030439 71 328 21.0 25.0 0.00 0.00 0.00 65 1011.5
20260504025934 71 344 20.0 27.0 0.00 0.00 0.00 65 1011.4
20260504025431 71 351 22.0 27.0 0.00 0.00 0.00 65 1011.4
20260504024929 71 346 19.0 25.0 0.00 0.00 0.00 65 1011.3
20260504024426 72 359 21.0 27.0 0.00 0.00 0.00 65 1011.3
20260504023923 72 352 25.0 31.0 0.00 0.00 0.00 64 1011.2
20260504023419 72 348 22.0 27.0 0.00 0.00 0.00 64 1011.5
20260504022915 72 351 25.0 30.0 0.00 0.00 0.00 64 1011.0
20260504022412 72 348 20.0 26.0 0.00 0.00 0.00 65 1011.2
20260504021908 72 324 26.0 27.0 0.00 0.00 0.00 64 1011.1
20260504021406 72 336 23.0 27.0 0.00 0.00 0.00 64 1011.0
20260504020903 72 345 24.0 29.0 0.00 0.00 0.00 63 1010.7
20260504020359 72 344 24.0 31.0 0.00 0.00 0.00 63 1010.7
20260504015855 72 0 23.0 32.0 0.00 0.00 0.00 63 1010.8
20260504015352 72 0 24.0 26.0 0.00 0.00 0.00 63 1010.9
20260504014848 72 358 27.0 32.0 0.00 0.00 0.00 62 1010.9
20260504014344 72 336 28.0 31.0 0.00 0.00 0.00 63 1010.8
20260504013842 72 356 16.0 27.0 0.00 0.00 0.00 64 1011.0
20260504013339 72 347 26.0 27.0 0.00 0.00 0.00 63 1010.9
20260504012836 73 342 25.0 26.0 0.00 0.00 0.00 63 1010.6
20260504012334 73 338 22.0 32.0 0.00 0.00 0.00 63 1010.7
20260504011831 73 340 20.0 24.0 0.00 0.00 0.00 62 1010.8
20260504011327 73 350 23.0 30.0 0.00 0.00 0.00 63 1010.5
20260504010823 73 351 20.0 25.0 0.00 0.00 0.00 64 1010.8
20260504010319 73 19 26.0 32.0 0.00 0.00 0.00 64 1010.5
20260504005816 73 345 26.0 30.0 0.00 0.00 0.00 64 1010.4
20260504005313 73 12 24.0 30.0 0.00 0.00 0.00 64 1010.7
20260504004810 73 353 22.0 31.0 0.00 0.00 0.00 64 1010.8
20260504004308 73 337 25.0 29.0 0.00 0.00 0.00 63 1010.5
20260504003804 73 349 22.0 29.0 0.00 0.00 0.00 63 1010.8
20260504003301 73 349 27.0 32.0 0.00 0.00 0.00 63 1010.8
20260504002757 73 344 28.0 31.0 0.00 0.00 0.00 62 1010.6
20260504002254 73 322 23.0 30.0 0.00 0.00 0.00 62 1010.6
20260504001752 74 350 24.0 33.0 0.00 0.00 0.00 63 1010.7
20260504001249 74 355 23.0 30.0 0.00 0.00 0.00 63 1010.8
20260504000746 74 353 27.0 31.0 0.00 0.00 0.00 62 1010.5
20260504000243 74 342 25.0 31.0 0.00 0.00 0.00 62 1010.6
20260503235741 74 341 24.0 27.0 0.00 0.00 0.00 62 1010.7
20260503235238 74 356 23.0 30.0 0.00 0.00 0.00 61 1010.7
20260503234735 74 7 26.0 33.0 0.00 0.00 0.00 61 1010.4
20260503234233 74 342 26.0 30.0 0.00 0.00 0.00 61 1010.5
20260503233730 74 324 22.0 32.0 0.00 0.00 0.00 61 1010.6
20260503233225 74 348 28.0 32.0 0.00 0.00 0.00 61 1010.6
20260503232723 75 349 22.0 30.0 0.00 0.00 0.00 60 1010.7
20260503232220 75 354 28.0 33.0 0.00 0.00 0.00 59 1010.7
20260503231719 75 351 24.0 31.0 0.00 0.00 0.00 60 1010.8
20260503231215 75 351 22.0 31.0 0.00 0.00 0.00 59 1010.8
20260503230711 75 355 23.0 33.0 0.00 0.00 0.00 60 1010.7
20260503230208 75 358 25.0 33.0 0.00 0.00 0.00 60 1010.5
20260503225705 75 349 29.0 33.0 0.00 0.00 0.00 60 1010.6
20260503225159 75 356 29.0 38.0 0.00 0.00 0.00 61 1010.6
20260503224657 75 350 26.0 33.0 0.00 0.00 0.00 61 1010.5
20260503224155 75 345 25.0 29.0 0.00 0.00 0.00 61 1010.4
20260503223652 75 355 33.0 39.0 0.00 0.00 0.00 62 1010.4
20260503223149 75 352 27.0 31.0 0.00 0.00 0.00 61 1010.5
20260503222646 75 353 30.0 33.0 0.00 0.00 0.00 61 1010.3
20260503222143 76 350 31.0 34.0 0.00 0.00 0.00 60 1010.3
20260503221642 76 356 23.0 32.0 0.00 0.00 0.00 60 1010.4
20260503221139 77 345 29.0 30.0 0.00 0.00 0.00 57 1010.6
20260503220636 77 345 29.0 30.0 0.00 0.00 0.00 57 1010.6
20260503220133 77 345 29.0 30.0 0.00 0.00 0.00 57 1010.4
20260503215630 77 345 29.0 30.0 0.00 0.00 0.00 57 1010.5
20260503215126 77 355 28.0 32.0 0.00 0.00 0.00 56 1010.4
20260503214625 77 355 28.0 32.0 0.00 0.00 0.00 56 1010.5
20260503214120 77 344 21.0 25.0 0.00 0.00 0.00 56 1010.7
20260503213615 77 359 27.0 32.0 0.00 0.00 0.00 55 1010.8
20260503213110 77 351 28.0 30.0 0.00 0.00 0.00 57 1010.5
20260503212608 78 353 30.0 33.0 0.00 0.00 0.00 56 1010.2
20260503212105 78 348 27.0 30.0 0.00 0.00 0.00 56 1010.3
20260503211603 78 357 23.0 25.0 0.00 0.00 0.00 56 1010.5
20260503211058 78 350 28.0 32.0 0.00 0.00 0.00 56 1010.3
20260503210555 79 4 18.0 21.0 0.00 0.00 0.00 56 1010.2
20260503210050 79 347 25.0 27.0 0.00 0.00 0.00 55 1010.4
20260503205547 80 343 23.0 25.0 0.00 0.00 0.00 52 1010.5
20260503205043 80 343 23.0 25.0 0.00 0.00 0.00 52 1010.1
20260503204540 81 336 15.0 16.0 0.00 0.00 0.00 52 1010.4
20260503204037 84 17 12.0 15.0 0.00 0.00 0.00 45 1010.6
20260503203535 83 334 22.0 25.0 0.00 0.00 0.00 44 1010.4
20260503203032 85 207 6.0 7.0 0.00 0.00 0.00 42 1010.4
20260503202530 85 217 7.0 9.0 0.00 0.00 0.00 42 1010.0
20260503202028 85 231 10.0 13.0 0.00 0.00 0.00 42 1009.7
20260503201526 84 219 6.0 9.0 0.00 0.00 0.00 46 1009.9
20260503201022 84 221 7.0 9.0 0.00 0.00 0.00 47 1009.7
20260503200518 84 222 7.0 8.0 0.00 0.00 0.00 48 1009.8
20260503200015 84 222 6.0 7.0 0.00 0.00 0.00 50 1009.9
20260503195512 84 230 6.0 7.0 0.00 0.00 0.00 50 1010.0
20260503195003 84 228 6.0 8.0 0.00 0.00 0.00 49 1010.0
20260503194501 84 226 6.0 8.0 0.00 0.00 0.00 51 1009.8
20260503194000 84 226 7.0 8.0 0.00 0.00 0.00 50 1009.6
20260503193457 84 227 5.0 6.0 0.00 0.00 0.00 50 1009.8
20260503192952 84 216 6.0 8.0 0.00 0.00 0.00 46 1009.6
20260503192449 84 220 7.0 9.0 0.00 0.00 0.00 46 1009.5
20260503191944 83 211 5.0 8.0 0.00 0.00 0.00 49 1009.4
20260503191443 84 204 4.0 7.0 0.00 0.00 0.00 52 1009.4
20260503190938 84 192 4.0 7.0 0.00 0.00 0.00 51 1009.7
20260503190436 85 190 4.0 8.0 0.00 0.00 0.00 49 1009.3
20260503185933 85 228 5.0 7.0 0.00 0.00 0.00 45 1009.2
20260503185429 85 215 8.0 9.0 0.00 0.00 0.00 46 1009.1
20260503184928 85 232 7.0 9.0 0.00 0.00 0.00 43 1009.2
20260503184425 86 231 7.0 8.0 0.00 0.00 0.00 43 1009.0
20260503183922 85 230 9.0 11.0 0.00 0.00 0.00 42 1009.1
20260503183418 85 254 5.0 7.0 0.00 0.00 0.00 47 1008.9
20260503182915 84 234 6.0 7.0 0.00 0.00 0.00 48 1009.0
20260503182414 85 237 5.0 9.0 0.00 0.00 0.00 48 1008.8
20260503181911 84 236 6.0 8.0 0.00 0.00 0.00 47 1009.0
20260503181408 84 242 8.0 9.0 0.00 0.00 0.00 49 1009.0
20260503180904 84 240 5.0 8.0 0.00 0.00 0.00 49 1008.9
20260503180403 85 233 7.0 9.0 0.00 0.00 0.00 48 1008.7
20260503175859 84 216 6.0 9.0 0.00 0.00 0.00 46 1008.7
20260503175357 84 200 4.0 4.0 0.00 0.00 0.00 52 1008.6
20260503174852 84 229 5.0 6.0 0.00 0.00 0.00 50 1008.4
20260503174351 85 217 5.0 7.0 0.00 0.00 0.00 50 1008.4
20260503173850 85 226 7.0 8.0 0.00 0.00 0.00 49 1008.5
20260503173347 85 221 8.0 9.0 0.00 0.00 0.00 47 1008.3
20260503172844 85 237 6.0 9.0 0.00 0.00 0.00 47 1008.3
20260503172342 84 233 8.0 10.0 0.00 0.00 0.00 48 1008.5
20260503171837 85 203 4.0 4.0 0.00 0.00 0.00 53 1008.3
20260503171334 86 227 5.0 9.0 0.00 0.00 0.00 46 1008.3
20260503170832 86 216 4.0 6.0 0.00 0.00 0.00 47 1008.3
20260503170328 86 199 4.0 6.0 0.00 0.00 0.00 46 1008.3
20260503150720 88 213 5.0 6.0 0.00 0.00 0.00 42 1007.1
20260503150216 88 213 5.0 6.0 0.00 0.00 0.00 42 1007.1
20260503140141 87 175 9.0 10.0 0.00 0.00 0.00 51 1007.4